Time,TemperatureF,DewpointF,PressureIn,WindDirection,WindDirectionDegrees,WindSpeedMPH,WindSpeedGustMPH,Humidity,HourlyPrecipIn,Conditions,Clouds,dailyrainin,SoftwareType,DateUTC
2013-07-12 02:00:00,69.0,-99.9,-100.00,ESE,118,2.0,3.0,-999,0.00,,,0.00,,2013-07-12 07:00:00,
2013-07-12 02:43:00,69.0,-99.9,-100.00,ESE,118,2.0,3.0,-999,0.00,,,0.00,,2013-07-12 07:43:00,
2013-07-12 02:52:00,69.0,-99.9,-100.00,ESE,118,2.0,3.0,-999,0.00,,,0.00,,2013-07-12 07:52:00,
2013-07-12 03:42:00,69.0,-99.9,-100.00,SE,127,1.0,3.0,-999,0.00,,,0.00,,2013-07-12 08:42:00,
2013-07-12 03:53:00,69.0,-99.9,-100.00,SE,127,1.0,3.0,-999,0.00,,,0.00,,2013-07-12 08:53:00,
2013-07-12 04:13:00,62.0,-99.9,-100.00,ESE,118,0.0,1.0,-999,0.00,,,0.00,,2013-07-12 09:13:00,
2013-07-12 04:22:00,62.0,-99.9,-100.00,ESE,118,0.0,1.0,-999,0.00,,,0.00,,2013-07-12 09:22:00,
2013-07-12 04:43:00,63.0,-99.9,-100.00,SSE,166,0.0,0.0,-999,0.00,,,0.00,,2013-07-12 09:43:00,
2013-07-12 04:52:00,63.0,-99.9,-100.00,SSE,166,0.0,0.0,-999,0.00,,,0.00,,2013-07-12 09:52:00,
2013-07-12 05:12:00,63.0,-99.9,-100.00,South,172,0.0,0.0,-999,0.00,,,0.00,,2013-07-12 10:12:00,
2013-07-12 05:22:00,63.0,-99.9,-100.00,South,172,0.0,0.0,-999,0.00,,,0.00,,2013-07-12 10:22:00,
2013-07-12 05:43:00,62.0,-99.9,-100.00,SSE,159,1.0,1.0,-999,0.00,,,0.00,,2013-07-12 10:43:00,
2013-07-12 05:52:00,62.0,-99.9,-100.00,SSE,159,1.0,1.0,-999,0.00,,,0.00,,2013-07-12 10:52:00,
2013-07-12 06:12:00,63.0,-99.9,-100.00,SW,221,0.0,1.0,-999,0.00,,,0.00,,2013-07-12 11:12:00,
2013-07-12 06:22:00,63.0,-99.9,-100.00,SW,221,0.0,1.0,-999,0.00,,,0.00,,2013-07-12 11:22:00,
2013-07-12 06:30:00,65.0,-99.9,-100.00,South,191,0.0,0.0,-999,0.00,,,0.00,,2013-07-12 11:30:00,
2013-07-12 06:43:00,61.0,-99.9,-100.00,South,178,0.0,0.0,-999,0.00,,,0.00,,2013-07-12 11:43:00,
2013-07-12 06:53:00,61.0,-99.9,-100.00,South,178,0.0,0.0,-999,0.00,,,0.00,,2013-07-12 11:53:00,
2013-07-12 07:11:00,65.0,-99.9,-100.00,South,191,0.0,0.0,-999,0.00,,,0.00,,2013-07-12 12:11:00,
2013-07-12 07:22:00,65.0,-99.9,-100.00,South,191,0.0,0.0,-999,0.00,,,0.00,,2013-07-12 12:22:00,
2013-07-12 07:30:00,68.0,-99.9,-100.00,SSE,160,0.0,0.0,-999,0.00,,,0.00,,2013-07-12 12:30:00,
2013-07-12 08:12:00,68.0,-99.9,-100.00,SSE,160,0.0,0.0,-999,0.00,,,0.00,,2013-07-12 13:12:00,
2013-07-12 08:22:00,68.0,-99.9,-100.00,SSE,160,0.0,0.0,-999,0.00,,,0.00,,2013-07-12 13:22:00,
2013-07-12 08:30:00,76.0,-99.9,-100.00,SE,145,0.0,2.0,-999,0.00,,,0.00,,2013-07-12 13:30:00,
2013-07-12 09:12:00,76.0,-99.9,-100.00,SE,145,0.0,2.0,-999,0.00,,,0.00,,2013-07-12 14:12:00,
2013-07-12 09:22:00,76.0,-99.9,-100.00,SE,145,0.0,2.0,-999,0.00,,,0.00,,2013-07-12 14:22:00,
2013-07-12 10:11:00,79.0,-99.9,-100.00,SSE,152,1.0,3.0,-999,0.00,,,0.00,,2013-07-12 15:11:00,
2013-07-12 10:22:00,79.0,-99.9,-100.00,SSE,152,1.0,3.0,-999,0.00,,,0.00,,2013-07-12 15:22:00,
2013-07-12 10:43:00,80.0,-99.9,-100.00,SSE,161,1.0,3.0,-999,0.00,,,0.00,,2013-07-12 15:43:00,
2013-07-12 10:53:00,80.0,-99.9,-100.00,SSE,161,1.0,3.0,-999,0.00,,,0.00,,2013-07-12 15:53:00,
2013-07-12 11:00:00,79.0,-99.9,-100.00,SE,131,7.0,13.0,-999,0.00,,,0.00,,2013-07-12 16:00:00,
2013-07-12 11:11:00,77.0,-99.9,-100.00,SE,141,6.0,8.0,-999,0.00,,,0.00,,2013-07-12 16:11:00,
2013-07-12 11:22:00,77.0,-99.9,-100.00,SE,141,6.0,8.0,-999,0.00,,,0.00,,2013-07-12 16:22:00,
2013-07-12 11:30:00,79.0,-99.9,-100.00,SE,143,4.0,11.0,-999,0.00,,,0.00,,2013-07-12 16:30:00,
2013-07-12 11:43:00,79.0,-99.9,-100.00,SE,131,7.0,13.0,-999,0.00,,,0.00,,2013-07-12 16:43:00,
2013-07-12 12:15:00,79.0,-99.9,-100.00,SE,143,4.0,11.0,-999,0.00,,,0.00,,2013-07-12 17:15:00,
2013-07-12 12:24:00,79.0,-99.9,-100.00,SE,143,4.0,11.0,-999,0.00,,,0.00,,2013-07-12 17:24:00,
2013-07-12 13:29:00,80.0,-99.9,-100.00,SE,143,6.0,9.0,-999,0.00,,,0.00,,2013-07-12 18:29:00,
2013-07-12 13:30:00,81.0,-99.9,-100.00,SE,142,3.0,7.0,-999,0.00,,,0.00,,2013-07-12 18:30:00,
2013-07-12 13:59:00,81.0,-99.9,-100.00,SE,142,6.0,11.0,-999,0.00,,,0.00,,2013-07-12 18:59:00,
2013-07-12 14:25:00,81.0,-99.9,-100.00,SE,142,3.0,7.0,-999,0.00,,,0.00,,2013-07-12 19:25:00,
2013-07-12 15:15:00,82.0,-99.9,-100.00,SE,129,5.0,9.0,-999,0.00,,,-99.99,,2013-07-12 20:15:00,
2013-07-12 15:24:00,82.0,-99.9,-100.00,SE,129,5.0,9.0,-999,0.00,,,-99.99,,2013-07-12 20:24:00,
2013-07-12 15:47:00,83.0,-99.9,-100.00,SE,138,5.0,10.0,-999,0.00,,,0.00,,2013-07-12 20:47:00,
2013-07-12 15:56:00,83.0,-99.9,-100.00,SE,138,5.0,10.0,-999,0.00,,,0.00,,2013-07-12 20:56:00,
2013-07-12 16:18:00,83.0,-99.9,-100.00,ESE,121,8.0,12.0,-999,0.00,,,0.00,,2013-07-12 21:18:00,
2013-07-12 17:17:00,83.0,-99.9,-100.00,SSE,155,3.0,5.0,-999,0.00,,,0.00,,2013-07-12 22:17:00,
2013-07-12 17:25:00,83.0,-99.9,-100.00,SSE,155,3.0,5.0,-999,0.00,,,0.00,,2013-07-12 22:25:00,
2013-07-12 17:30:00,83.0,-99.9,-100.00,SSE,162,1.0,4.0,-999,0.00,,,0.00,,2013-07-12 22:30:00,
2013-07-12 17:47:00,83.0,-99.9,-100.00,SSE,156,2.0,5.0,-999,0.00,,,0.00,,2013-07-12 22:47:00,
2013-07-12 18:14:00,83.0,-99.9,-100.00,SSE,162,1.0,4.0,-999,0.00,,,0.00,,2013-07-12 23:14:00,
2013-07-12 18:27:00,83.0,-99.9,-100.00,SSE,162,1.0,4.0,-999,0.00,,,0.00,,2013-07-12 23:27:00,
2013-07-12 18:30:00,86.0,-99.9,-100.00,SSE,159,0.0,1.0,-999,0.00,,,0.00,,2013-07-12 23:30:00,
2013-07-12 19:09:00,86.0,-99.9,-100.00,SSE,159,0.0,1.0,-999,0.00,,,0.00,,2013-07-13 00:09:00,
2013-07-12 19:19:00,86.0,-99.9,-100.00,SSE,159,0.0,1.0,-999,0.00,,,0.00,,2013-07-13 00:19:00,
2013-07-12 19:27:00,86.0,-99.9,-100.00,SSE,159,0.0,1.0,-999,0.00,,,0.00,,2013-07-13 00:27:00,
2013-07-12 19:30:00,86.0,-99.9,-100.00,SSE,156,2.0,2.0,-999,0.00,,,0.00,,2013-07-13 00:30:00,
2013-07-12 20:15:00,86.0,-99.9,-100.00,SSE,156,2.0,2.0,-999,0.00,,,0.00,,2013-07-13 01:15:00,
2013-07-12 20:26:00,86.0,-99.9,-100.00,SSE,156,2.0,2.0,-999,0.00,,,0.00,,2013-07-13 01:26:00,
2013-07-12 21:16:00,74.0,-99.9,-100.00,SE,131,4.0,4.0,-999,-99.99,,,0.00,,2013-07-13 02:16:00,
2013-07-12 21:26:00,74.0,-99.9,-100.00,SE,131,4.0,4.0,-999,-99.99,,,0.00,,2013-07-13 02:26:00,
2013-07-12 21:39:00,70.0,-99.9,-100.00,SE,127,2.0,3.0,-999,0.00,,,0.00,,2013-07-13 02:39:00,
2013-07-12 21:49:00,70.0,-99.9,-100.00,SE,127,2.0,3.0,-999,0.00,,,0.00,,2013-07-13 02:49:00,
2013-07-12 21:58:00,70.0,-99.9,-100.00,SE,127,2.0,3.0,-999,0.00,,,0.00,,2013-07-13 02:58:00,
2013-07-12 22:14:00,72.0,-99.9,-100.00,ESE,104,4.0,5.0,-999,0.00,,,0.00,,2013-07-13 03:14:00,
2013-07-12 22:48:00,72.0,-99.9,-100.00,East,95,3.0,4.0,-999,0.00,,,0.00,,2013-07-13 03:48:00,
2013-07-12 23:12:00,69.0,-99.9,-100.00,ESE,110,4.0,5.0,-999,0.00,,,0.00,,2013-07-13 04:12:00,
2013-07-12 23:22:00,69.0,-99.9,-100.00,ESE,110,4.0,5.0,-999,0.00,,,0.00,,2013-07-13 04:22:00,
2013-07-12 23:30:00,70.0,-99.9,-100.00,SE,132,8.0,9.0,-999,0.00,,,0.00,,2013-07-13 04:30:00,
2013-07-12 23:44:00,70.0,-99.9,-100.00,SE,136,5.0,6.0,-999,0.00,,,0.00,,2013-07-13 04:44:00,
2013-07-12 23:52:00,70.0,-99.9,-100.00,SE,136,5.0,6.0,-999,0.00,,,0.00,,2013-07-13 04:52:00,